| time (UTC) | temp F | wind direction | speed MPH | gust MPH | rain 1hr in | rain 24hr in | rain mn in | humidity % | barometer mb |
| 20260510212931 | 62 | 179 | 1.0 | 7.0 | 0.00 | 0.00 | 0.00 | 30 | 1017.7 |
| 20260510210929 | 61 | 222 | 1.0 | 9.0 | 0.00 | 0.00 | 0.00 | 29 | 1017.9 |
| 20260510204919 | 60 | 95 | 1.0 | 8.0 | 0.00 | 0.00 | 0.00 | 30 | 1018.4 |
| 20260510202928 | 59 | 282 | 6.0 | 11.0 | 0.00 | 0.00 | 0.00 | 32 | 1018.6 |
| 20260510201421 | 58 | 271 | 3.0 | 16.0 | 0.00 | 0.00 | 0.00 | 32 | 1018.7 |
| 20260510195437 | 58 | 234 | 1.0 | 7.0 | 0.00 | 0.00 | 0.00 | 35 | 1019.0 |
| 20260510192934 | 57 | 176 | 4.0 | 11.0 | 0.00 | 0.00 | 0.00 | 36 | 1019.2 |
| 20260510191433 | 57 | 265 | 4.0 | 10.0 | 0.00 | 0.00 | 0.00 | 36 | 1019.3 |
| 20260510185923 | 56 | 5 | 1.0 | 10.0 | 0.00 | 0.00 | 0.00 | 37 | 1019.5 |
| 20260510184423 | 56 | 112 | 2.0 | 9.0 | 0.00 | 0.00 | 0.00 | 39 | 1019.7 |
| 20260510182425 | 54 | 184 | 4.0 | 13.0 | 0.00 | 0.00 | 0.00 | 39 | 1020.0 |
| 20260510180443 | 54 | 229 | 3.0 | 11.0 | 0.00 | 0.00 | 0.00 | 40 | 1020.2 |
| 20260510174421 | 54 | 191 | 4.0 | 9.0 | 0.00 | 0.00 | 0.00 | 40 | 1020.3 |
| 20260510172432 | 54 | 129 | 5.0 | 10.0 | 0.00 | 0.00 | 0.00 | 41 | 1020.5 |
| 20260510170931 | 52 | 191 | 2.0 | 13.0 | 0.00 | 0.00 | 0.00 | 43 | 1020.8 |
| 20260510165420 | 52 | 166 | 5.0 | 15.0 | 0.00 | 0.00 | 0.00 | 44 | 1021.0 |
| 20260510163919 | 51 | 284 | 4.0 | 8.0 | 0.00 | 0.00 | 0.00 | 44 | 1021.0 |
| 20260510161932 | 49 | 214 | 5.0 | 8.0 | 0.00 | 0.00 | 0.00 | 45 | 1021.4 |
| 20260510160428 | 49 | 205 | 4.0 | 9.0 | 0.00 | 0.00 | 0.00 | 49 | 1021.2 |
| 20260510154431 | 50 | 211 | 5.0 | 9.0 | 0.00 | 0.00 | 0.00 | 47 | 1021.3 |
| 20260510152436 | 48 | 137 | 3.0 | 10.0 | 0.00 | 0.00 | 0.00 | 51 | 1021.5 |
| 20260510150928 | 47 | 144 | 4.0 | 8.0 | 0.00 | 0.00 | 0.00 | 56 | 1021.5 |
| 20260510144930 | 45 | 208 | 2.0 | 8.0 | 0.00 | 0.00 | 0.00 | 60 | 1021.5 |
| 20260510143431 | 43 | 187 | 3.0 | 6.0 | 0.00 | 0.00 | 0.00 | 64 | 1021.4 |
| 20260510141913 | 41 | 194 | 4.0 | 6.0 | 0.00 | 0.00 | 0.00 | 68 | 1021.5 |
| 20260510135934 | 39 | 148 | 1.0 | 3.0 | 0.00 | 0.00 | 0.00 | 75 | 1021.6 |
| 20260510133927 | 37 | 79 | 0.0 | 2.0 | 0.00 | 0.00 | 0.00 | 80 | 1021.3 |
| 20260510131933 | 35 | 86 | 0.0 | 2.0 | 0.00 | 0.00 | 0.00 | 87 | 1021.2 |
| 20260510130425 | 33 | 86 | 1.0 | 3.0 | 0.00 | 0.00 | 0.00 | 90 | 1021.0 |
| 20260510124428 | 30 | 143 | 0.0 | 0.0 | 0.00 | 0.00 | 0.00 | 94 | 1021.0 |
| 20260510122437 | 28 | 143 | 0.0 | 3.0 | 0.00 | 0.00 | 0.00 | 93 | 1020.8 |
| 20260510120922 | 27 | 168 | 0.0 | 4.0 | 0.00 | 0.00 | 0.00 | 93 | 1020.6 |
| 20260510114934 | 26 | 188 | 0.0 | 0.0 | 0.00 | 0.00 | 0.00 | 93 | 1020.4 |
| 20260510113435 | 26 | 176 | 0.0 | 1.0 | 0.00 | 0.00 | 0.00 | 93 | 1020.4 |
| 20260510111923 | 25 | 142 | 0.0 | 0.0 | 0.00 | 0.00 | 0.00 | 93 | 1020.3 |
| 20260510105939 | 24 | 13 | 0.0 | 0.0 | 0.00 | 0.00 | 0.00 | 93 | 1020.3 |
| 20260510103930 | 23 | 140 | 0.0 | 0.0 | 0.00 | 0.00 | 0.00 | 92 | 1020.1 |
| 20260510102417 | 21 | 140 | 0.0 | 1.0 | 0.00 | 0.00 | 0.00 | 93 | 1020.0 |
| 20260510100442 | 21 | 140 | 0.0 | 2.0 | 0.00 | 0.00 | 0.00 | 91 | 1020.0 |
| 20260510094930 | 24 | 176 | 0.0 | 2.0 | 0.00 | 0.00 | 0.00 | 92 | 1019.9 |
| 20260510093425 | 23 | 160 | 0.0 | 0.0 | 0.00 | 0.00 | 0.00 | 93 | 1019.7 |
| 20260510091437 | 22 | 176 | 0.0 | 0.0 | 0.00 | 0.00 | 0.00 | 92 | 1019.6 |
| 20260510085933 | 22 | 176 | 0.0 | 0.0 | 0.00 | 0.00 | 0.00 | 91 | 1019.6 |
| 20260510083942 | 24 | 177 | 1.0 | 3.0 | 0.00 | 0.00 | 0.00 | 91 | 1019.4 |
| 20260510082413 | 26 | 180 | 0.0 | 3.0 | 0.00 | 0.00 | 0.00 | 91 | 1019.4 |
| 20260510080422 | 26 | 182 | 0.0 | 0.0 | 0.00 | 0.00 | 0.00 | 92 | 1019.1 |
| 20260510074911 | 27 | 178 | 0.0 | 0.0 | 0.00 | 0.00 | 0.00 | 90 | 1019.0 |
| 20260510072904 | 28 | 182 | 0.0 | 0.0 | 0.00 | 0.00 | 0.00 | 91 | 1018.9 |
| 20260510071349 | 28 | 182 | 0.0 | 0.0 | 0.00 | 0.00 | 0.00 | 90 | 1019.0 |
| 20260510065414 | 29 | 181 | 0.0 | 0.0 | 0.00 | 0.00 | 0.00 | 90 | 1018.9 |
| 20260510063854 | 29 | 182 | 0.0 | 0.0 | 0.00 | 0.00 | 0.00 | 89 | 1018.8 |
| 20260510061910 | 29 | 182 | 0.0 | 0.0 | 0.00 | 0.00 | 0.00 | 88 | 1018.7 |
| 20260510060359 | 29 | 182 | 0.0 | 1.0 | 0.00 | 0.00 | 0.00 | 86 | 1018.6 |
| 20260510054856 | 30 | 182 | 0.0 | 0.0 | 0.00 | 0.00 | 0.00 | 86 | 1018.5 |
| 20260510052910 | 30 | 182 | 0.0 | 1.0 | 0.00 | 0.00 | 0.00 | 80 | 1018.5 |
| 20260510050915 | 32 | 182 | 1.0 | 3.0 | 0.00 | 0.00 | 0.00 | 75 | 1018.3 |
| 20260510045405 | 34 | 35 | 0.0 | 3.0 | 0.00 | 0.00 | 0.00 | 72 | 1018.4 |
| 20260510043413 | 33 | 38 | 2.0 | 3.0 | 0.00 | 0.00 | 0.00 | 74 | 1018.2 |
| 20260510041903 | 33 | 40 | 0.0 | 0.0 | 0.00 | 0.00 | 0.00 | 69 | 1018.1 |
| 20260510035908 | 34 | 39 | 0.0 | 0.0 | 0.00 | 0.00 | 0.00 | 67 | 1017.9 |
| 20260510034357 | 36 | 40 | 0.0 | 2.0 | 0.00 | 0.00 | 0.00 | 66 | 1017.8 |
| 20260510031912 | 38 | 40 | 0.0 | 3.0 | 0.00 | 0.00 | 0.00 | 62 | 1017.6 |
| 20260510030403 | 39 | 11 | 3.0 | 6.0 | 0.00 | 0.00 | 0.00 | 60 | 1017.4 |
| 20260510024401 | 42 | 338 | 2.0 | 4.0 | 0.00 | 0.00 | 0.00 | 51 | 1016.9 |
| 20260510022410 | 45 | 278 | 2.0 | 7.0 | 0.00 | 0.00 | 0.00 | 46 | 1016.6 |
| 20260510020900 | 47 | 274 | 5.0 | 12.0 | 0.00 | 0.00 | 0.00 | 44 | 1016.6 |
| 20260510014420 | 49 | 329 | 9.0 | 14.0 | 0.00 | 0.00 | 0.00 | 42 | 1016.3 |
| 20260510012909 | 50 | 343 | 9.0 | 14.0 | 0.00 | 0.00 | 0.00 | 43 | 1016.2 |
| 20260510011406 | 51 | 298 | 9.0 | 15.0 | 0.00 | 0.00 | 0.00 | 43 | 1016.1 |
| 20260510005900 | 51 | 295 | 12.0 | 19.0 | 0.00 | 0.00 | 0.00 | 42 | 1016.0 |
| 20260510003905 | 51 | 308 | 10.0 | 18.0 | 0.00 | 0.00 | 0.00 | 42 | 1015.9 |
| 20260510001902 | 52 | 306 | 12.0 | 17.0 | 0.00 | 0.00 | 0.00 | 41 | 1016.0 |
| 20260510000356 | 52 | 287 | 9.0 | 17.0 | 0.00 | 0.00 | 0.00 | 42 | 1015.9 |
| 20260509234405 | 52 | 284 | 14.0 | 21.0 | 0.00 | 0.00 | 0.00 | 40 | 1015.7 |
| 20260509232413 | 52 | 268 | 13.0 | 20.0 | 0.00 | 0.00 | 0.00 | 41 | 1015.7 |
| 20260509230409 | 52 | 360 | 12.0 | 22.0 | 0.00 | 0.00 | 0.00 | 39 | 1015.5 |
| 20260509224909 | 53 | 313 | 14.0 | 24.0 | 0.00 | 0.00 | 0.00 | 38 | 1015.7 |
| 20260509223401 | 53 | 273 | 15.0 | 22.0 | 0.00 | 0.00 | 0.00 | 38 | 1015.6 |
| 20260509221419 | 53 | 296 | 15.0 | 24.0 | 0.00 | 0.00 | 0.00 | 37 | 1015.4 |
| 20260509215906 | 53 | 300 | 15.0 | 24.0 | 0.00 | 0.00 | 0.00 | 37 | 1015.5 |